Flag for Netherlands Weather past 2 weeks in Emmen, Netherlands

Now
54 °F

Cool.


Feels Like: 54 °F
Forecast: 55 / 67 °F
Wind: 1 mph from West

Location: Meppen

Current Time: Oct 1, 2014 at 2:22:33 AM

Latest Report: Oct 1, 2014 at 1:00 AM


Visibility: 0 mi

Pressure: 30.28 "Hg

Humidity: 94%

Dew point: 53 °F

Location of EmmenLocation

Historic Weather in Emmen — Graph

°F

Emmen temperature yesterday

Maximum temperature yesterday: 68 °F (at 3:00 PM)
Minimum temperature yesterday: 56 °F (at 9:00 PM)
Average temperature yesterday: 62 °F

Past Weeks' High & Low Weather Summary

 TemperatureHumidityPressure
High78 °F (Sep 18, 4:00 PM)96% (Sep 20, 4:00 AM)30.39 "Hg (Sep 20, 4:00 AM)
Low42 °F (Sep 28, 7:00 AM)43% (Sep 22, 4:00 PM)29.79 "Hg (Sep 24, 8:00 PM)
Average59 °F80%30.06 "Hg
* Reported Sep 16 1:00 AM — Oct 1 1:00 AM, Emmen, Weather by CustomWeather, © 2014

Note: Actual official high and low records may vary slightly from our data, if they occured in-between our weather recording intervals... More about our weather records

Advertising

Emmen weather history for previous 24 hours

 ConditionsComfort  
Time TempWeatherWind HumidityBarometerVisibility
1:00 AM
Oct 1
54 °FCool.1 mph94%30.28 "Hg0 mi
12:00 AM57 °FCool.1 mph91%30.28 "Hg1 mi
10:00 PM
Sep 30
56 °FCool.1 mph91%30.27 "Hg2 mi
9:00 PM56 °FCool.1 mph90%30.27 "Hg3 mi
7:00 PM65 °FMild.3 mph75%30.25 "Hg4 mi
6:00 PM66 °FMild.2 mph70%30.24 "Hg4 mi
4:00 PM67 °FPartly sunny.3 mph61%30.24 "Hg11 mi
3:00 PM68 °FScattered clouds.6 mph62%30.24 "Hg9 mi
2:00 PMN/APassing clouds.3 mphN/AN/A37 mi
1:00 PM66 °FPartly sunny.6 mph73%30.24 "Hg6 mi
12:00 PM64 °FOvercast.5 mph81%30.23 "Hg6 mi
10:00 AM61 °FFog.3 mph91%30.22 "Hg2 mi
9:00 AM60 °FFog.3 mph93%30.20 "Hg2 mi
7:00 AM60 °FFog.2 mph93%30.18 "Hg2 mi
6:00 AM60 °FLow clouds.2 mph94%30.18 "Hg2 mi
4:00 AM60 °FCool.2 mph94%30.18 "Hg2 mi
3:00 AM61 °FCool.2 mph93%30.19 "Hg2 mi
2:00 AM61 °FCool.2 mph94%30.19 "Hg2 mi
Weather by CustomWeather, © 2014

See weather overviewHow to use our weather pages